EW4141 Weather Reports


Display with metric or nautical units.
time (UTC)temp
F
wind
direction
speed
MPH
gust
MPH
rain 1hr
in
rain 24hr
in
rain mn
in
humidity
%
barometer
mb
20260503035105 50 10 16.0 20.0 0.00 0.01 0.01 70 1009.9
20260503035005 50 10 15.0 19.0 0.00 0.01 0.01 71 1010.0
20260503034905 50 11 15.0 19.0 0.00 0.01 0.01 71 1009.9
20260503034805 50 11 15.0 19.0 0.00 0.01 0.01 71 1010.0
20260503034705 50 11 15.0 18.0 0.00 0.01 0.01 72 1010.0
20260503034621 50 7 15.0 18.0 0.00 0.01 0.01 71 1010.2
20260503034605 50 11 15.0 18.0 0.00 0.01 0.01 72 1010.0
20260503034005 50 7 15.0 19.0 0.00 0.01 0.01 72 1009.9
20260503033905 50 6 16.0 19.0 0.00 0.01 0.01 72 1009.9
20260503033805 50 5 16.0 19.0 0.00 0.01 0.01 72 1009.9
20260503033705 50 4 16.0 20.0 0.00 0.01 0.01 72 1009.9
20260503033605 50 3 16.0 20.0 0.00 0.01 0.01 72 1009.9
20260503033505 50 3 17.0 20.0 0.00 0.01 0.01 72 1009.9
20260503033405 50 2 17.0 20.0 0.00 0.01 0.01 72 1009.9
20260503033305 50 1 17.0 20.0 0.00 0.01 0.01 72 1010.0
20260503033205 50 1 17.0 20.0 0.00 0.01 0.01 72 1010.0
20260503033107 0 360 16.0 20.0 0.00 0.01 0.01 1010.2
20260503033105 50 359 17.0 20.0 0.00 0.01 0.01 72 1009.9
20260503033005 50 359 17.0 20.0 0.00 0.01 0.01 72 1009.9
20260503032905 50 359 18.0 20.0 0.00 0.01 0.01 72 1009.9
20260503032805 50 359 18.0 20.0 0.00 0.01 0.01 72 1009.8
20260503032705 50 359 18.0 20.0 0.00 0.01 0.01 72 1009.9
20260503032605 50 359 18.0 21.0 0.00 0.01 0.01 72 1009.9
20260503032506 50 358 18.0 21.0 0.00 0.01 0.01 72 1009.9
20260503032405 50 358 18.0 21.0 0.00 0.01 0.01 72 1009.9
20260503032305 50 357 18.0 21.0 0.00 0.01 0.01 73 1009.9
20260503032205 50 357 18.0 21.0 0.00 0.01 0.01 73 1010.0
20260503032105 50 357 18.0 21.0 0.00 0.01 0.01 73 1010.0
20260503032005 50 357 17.0 21.0 0.00 0.01 0.01 74 1009.9
20260503031905 50 357 17.0 21.0 0.00 0.01 0.01 74 1010.0
20260503031805 50 356 17.0 21.0 0.00 0.01 0.01 76 1009.9
20260503031706 50 356 17.0 21.0 0.00 0.01 0.01 76 1009.8
20260503031620 49 2 18.0 20.0 0.00 0.01 0.01 77 1010.1
20260503031605 50 355 16.0 20.0 0.00 0.01 0.01 77 1009.8
20260503031505 50 356 16.0 20.0 0.00 0.01 0.01 77 1009.8
20260503031406 50 357 15.0 19.0 0.00 0.01 0.01 77 1009.7
20260503031305 50 358 15.0 19.0 0.00 0.01 0.01 78 1009.7
20260503031205 50 358 15.0 19.0 0.00 0.01 0.01 78 1009.7
20260503031105 50 359 14.0 18.0 0.00 0.01 0.01 79 1009.7
20260503031005 50 1 13.0 18.0 0.00 0.01 0.01 79 1009.8
20260503030906 50 2 13.0 18.0 0.00 0.01 0.01 80 1009.8
20260503030806 50 2 12.0 18.0 0.00 0.01 0.01 80 1009.9
20260503030705 50 2 12.0 16.0 0.00 0.01 0.01 81 1010.0
20260503030605 50 1 11.0 16.0 0.00 0.01 0.01 81 1010.1
20260503030505 50 1 11.0 14.0 0.00 0.01 0.01 81 1010.2
20260503030405 50 2 10.0 14.0 0.00 0.01 0.01 81 1010.1
20260503030305 50 2 10.0 14.0 0.00 0.01 0.01 81 1010.1
20260503030205 51 2 9.0 14.0 0.00 0.01 0.01 81 1010.1
20260503030105 50 5 9.0 14.0 0.00 0.01 0.01 81 1010.3
20260503030005 51 1 9.0 13.0 0.00 0.01 0.01 81 1010.2
20260503025905 51 1 9.0 13.0 0.00 0.01 0.01 81 1010.3
20260503025805 51 1 8.0 13.0 0.00 0.01 0.01 81 1010.3
20260503025705 51 2 8.0 13.0 0.00 0.01 0.01 81 1010.3
20260503025605 51 3 8.0 11.0 0.00 0.01 0.01 81 1010.3
20260503025505 51 3 7.0 11.0 0.00 0.01 0.01 81 1010.3
20260503025405 51 359 7.0 10.0 0.00 0.01 0.01 81 1010.2
20260503025305 51 357 7.0 10.0 0.00 0.01 0.01 81 1010.2
20260503025205 51 355 7.0 10.0 0.00 0.01 0.01 81 1010.2
20260503025105 51 352 7.0 10.0 0.00 0.01 0.01 81 1010.2
20260503025005 51 349 8.0 10.0 0.00 0.01 0.01 81 1010.1
20260503024906 51 345 8.0 10.0 0.00 0.01 0.01 81 1010.2
20260503024805 51 342 8.0 10.0 0.00 0.01 0.01 81 1010.3
20260503024615 50 1 7.0 12.0 0.00 0.01 0.01 80 1010.6
20260503024105 51 326 8.0 14.0 0.00 0.01 0.01 80 1010.3
20260503024005 51 326 7.0 14.0 0.00 0.01 0.01 80 1010.3
20260503023906 51 325 7.0 14.0 0.00 0.01 0.01 80 1010.2
20260503023805 51 322 6.0 14.0 0.00 0.01 0.01 79 1010.2
20260503023705 51 319 5.0 14.0 0.00 0.01 0.01 79 1010.2
20260503023606 51 315 5.0 14.0 0.00 0.01 0.01 79 1010.2
20260503023104 51 330 3.0 6.0 0.00 0.01 0.01 79 1010.4
20260503023005 51 231 2.0 4.0 0.00 0.01 0.01 79 1010.2
20260503022905 51 221 2.0 4.0 0.00 0.01 0.01 79 1010.1
20260503022805 51 221 1.0 4.0 0.00 0.01 0.01 79 1010.1
20260503022704 51 221 1.0 4.0 0.00 0.01 0.01 79 1010.1
20260503022605 51 221 1.0 4.0 0.00 0.01 0.01 79 1010.1
20260503022505 51 221 1.0 4.0 0.00 0.01 0.01 79 1010.2
20260503022405 51 221 1.0 4.0 0.00 0.01 0.01 79 1010.1
20260503022305 52 221 1.0 2.0 0.00 0.01 0.01 79 1010.1
20260503022205 52 221 1.0 2.0 0.00 0.01 0.01 79 1010.1
20260503022105 52 221 1.0 2.0 0.00 0.01 0.01 79 1010.1
20260503022006 52 221 1.0 2.0 0.00 0.01 0.01 79 1010.0
20260503021905 52 221 1.0 2.0 0.00 0.01 0.01 79 1010.0
20260503021805 52 221 1.0 2.0 0.00 0.01 0.01 79 1010.1
20260503021705 52 221 1.0 2.0 0.00 0.01 0.01 79 1010.1
20260503021617 51 221 0.0 2.0 0.00 0.01 0.01 79 1010.2
20260503021605 52 221 1.0 2.0 0.00 0.01 0.01 79 1010.0
20260503021505 52 222 1.0 4.0 0.00 0.01 0.01 79 1010.1
20260503021405 52 222 1.0 4.0 0.00 0.01 0.01 79 1010.0
20260503021305 52 222 1.0 4.0 0.00 0.01 0.01 78 1010.1
20260503021205 52 222 2.0 4.0 0.00 0.01 0.01 78 1010.1
20260503021105 52 222 2.0 4.0 0.00 0.01 0.01 78 1010.1
20260503020506 52 222 2.0 5.0 0.00 0.01 0.01 78 1010.1
20260503020405 52 222 2.0 5.0 0.00 0.01 0.01 78 1010.1
20260503020305 52 221 2.0 5.0 0.00 0.01 0.01 78 1010.1
20260503020205 52 221 2.0 5.0 0.00 0.01 0.01 78 1010.1
20260503020105 52 221 3.0 5.0 0.00 0.01 0.01 78 1010.0
20260503020009 51 221 2.0 5.0 0.00 0.01 0.01 78 1010.3
20260503015505 52 204 3.0 6.0 0.00 0.01 0.01 78 1010.0
20260503015404 52 199 3.0 6.0 0.00 0.01 0.01 78 1010.0
20260503015305 52 194 3.0 6.0 0.00 0.01 0.01 78 1010.0
20260503015204 52 190 3.0 6.0 0.00 0.01 0.01 78 1010.0
20260503015105 52 187 3.0 6.0 0.00 0.01 0.01 78 1010.1
20260503015005 52 184 3.0 7.0 0.00 0.01 0.01 78 1010.1
20260503014905 52 184 3.0 7.0 0.00 0.01 0.01 78 1010.1
20260503014805 52 185 3.0 7.0 0.00 0.01 0.01 78 1010.1
20260503014705 52 185 3.0 7.0 0.00 0.01 0.01 78 1010.2
20260503014614 52 203 3.0 7.0 0.00 0.01 0.01 78 1010.4
20260503014605 52 183 3.0 7.0 0.00 0.01 0.01 78 1010.1
20260503013905 52 192 4.0 7.0 0.00 0.01 0.01 78 1010.2
20260503013805 52 191 4.0 7.0 0.00 0.01 0.01 77 1010.2
20260503013705 52 190 4.0 7.0 0.00 0.01 0.01 77 1010.1
20260503013605 52 189 4.0 7.0 0.00 0.01 0.01 77 1010.1
20260503013505 52 186 4.0 7.0 0.00 0.01 0.01 77 1010.1
20260503013405 52 184 4.0 7.0 0.00 0.01 0.01 77 1010.1
20260503013305 52 183 4.0 7.0 0.00 0.01 0.01 77 1010.1
20260503013205 52 179 4.0 7.0 0.00 0.01 0.01 77 1010.1
20260503013105 52 177 4.0 7.0 0.00 0.01 0.01 77 1010.2
20260503013012 52 194 3.0 7.0 0.00 0.01 0.01 77 1010.4
20260503013005 52 176 3.0 7.0 0.00 0.01 0.01 77 1010.1
20260503012906 52 174 3.0 7.0 0.00 0.01 0.01 77 1010.1
20260503012805 52 173 3.0 7.0 0.00 0.01 0.01 77 1010.1
20260503012705 52 172 4.0 7.0 0.00 0.01 0.01 77 1010.1
20260503012605 52 172 3.0 7.0 0.00 0.01 0.01 77 1010.0
20260503012505 52 173 3.0 7.0 0.00 0.01 0.01 77 1010.1
20260503012405 52 173 3.0 7.0 0.00 0.01 0.01 77 1010.1
20260503012306 52 173 4.0 7.0 0.00 0.01 0.01 77 1010.1
20260503012205 52 174 4.0 7.0 0.00 0.01 0.01 77 1010.1
20260503012105 53 175 4.0 7.0 0.00 0.01 0.01 76 1010.2
20260503012005 53 174 4.0 7.0 0.00 0.01 0.01 76 1010.2
20260503011905 53 176 4.0 7.0 0.00 0.01 0.01 76 1010.2
20260503011805 53 177 4.0 7.0 0.00 0.01 0.01 76 1010.2
20260503011705 53 178 4.0 7.0 0.00 0.01 0.01 76 1010.2
20260503011613 52 183 3.0 7.0 0.00 0.01 0.01 76 1010.4
20260503011605 53 179 4.0 8.0 0.00 0.01 0.01 76 1010.2
20260503011505 53 181 4.0 8.0 0.00 0.01 0.01 76 1010.2
20260503011405 53 181 4.0 8.0 0.00 0.01 0.01 76 1010.1
20260503011305 53 182 4.0 8.0 0.00 0.01 0.01 76 1010.1
20260503011205 53 182 4.0 8.0 0.00 0.01 0.01 76 1010.0
20260503011105 53 182 4.0 8.0 0.00 0.01 0.01 76 1010.0
20260503011005 53 184 4.0 8.0 0.00 0.01 0.01 76 1010.0
20260503010905 53 181 4.0 8.0 0.00 0.01 0.01 76 1010.0
20260503010205 53 173 4.0 8.0 0.00 0.01 0.01 76 1010.0
20260503010105 53 171 4.0 8.0 0.00 0.01 0.01 75 1009.9
20260503010007 52 158 4.0 8.0 0.00 0.01 0.01 75 1010.2
20260503010005 53 170 4.0 8.0 0.00 0.01 0.01 75 1010.0
20260503005905 53 171 4.0 7.0 0.00 0.01 0.01 75 1010.0
20260503005806 53 171 4.0 6.0 0.00 0.01 0.01 75 1010.0
20260503005705 53 169 3.0 6.0 0.00 0.01 0.01 75 1010.0
20260503005605 53 168 4.0 6.0 0.00 0.01 0.01 75 1010.0
20260503005505 53 168 4.0 6.0 0.00 0.01 0.01 74 1009.9
20260503005405 53 167 4.0 6.0 0.00 0.01 0.01 74 1009.9
20260503005305 53 167 4.0 6.0 0.00 0.01 0.01 74 1009.9
20260503005205 53 166 3.0 6.0 0.00 0.01 0.01 74 1009.9
20260503005105 53 167 3.0 6.0 0.00 0.01 0.01 74 1009.9
20260503005005 53 166 3.0 6.0 0.00 0.01 0.01 74 1009.8
20260503004905 53 166 3.0 6.0 0.00 0.01 0.01 74 1009.9
20260503004805 53 165 3.0 6.0 0.00 0.01 0.01 74 1009.9
20260503004610 53 169 3.0 6.0 0.00 0.01 0.01 74 1010.1
20260503004205 53 165 3.0 6.0 0.00 0.01 0.01 74 1009.9
20260503004105 53 166 3.0 6.0 0.00 0.01 0.01 73 1009.9
20260503004005 53 167 3.0 6.0 0.00 0.01 0.01 73 1009.8
20260503003906 53 168 3.0 6.0 0.00 0.01 0.01 73 1009.8
20260503003805 53 169 3.0 6.0 0.00 0.01 0.01 73 1009.8
20260503003705 53 170 2.0 6.0 0.00 0.01 0.01 73 1009.8
20260503003605 53 170 2.0 6.0 0.00 0.01 0.01 73 1009.8
20260503003505 53 170 3.0 6.0 0.00 0.01 0.01 73 1009.8
20260503003405 53 170 2.0 6.0 0.00 0.01 0.01 73 1009.8
20260503003305 53 169 2.0 4.0 0.00 0.01 0.01 73 1009.8
20260503003118 53 173 2.0 4.0 0.00 0.01 0.01 73 1010.0
20260503002705 54 164 2.0 4.0 0.00 0.01 0.01 73 1009.8
20260503002605 54 164 2.0 4.0 0.00 0.01 0.01 73 1009.7
20260503002505 54 163 2.0 4.0 0.00 0.01 0.01 73 1009.7
20260503002405 54 163 2.0 4.0 0.00 0.01 0.01 73 1009.7
20260503002305 54 162 2.0 4.0 0.00 0.01 0.01 73 1009.7
20260503002205 54 162 2.0 4.0 0.00 0.01 0.01 73 1009.6
20260503002105 54 162 2.0 4.0 0.00 0.01 0.01 73 1009.7
20260503002005 54 161 2.0 3.0 0.00 0.01 0.01 72 1009.7
20260503001904 54 161 2.0 3.0 0.00 0.01 0.01 72 1009.6
20260503001805 54 162 2.0 3.0 0.00 0.01 0.01 72 1009.7
20260503001705 54 161 2.0 3.0 0.00 0.01 0.01 72 1009.7
20260503001608 53 161 1.0 3.0 0.00 0.01 0.01 72 1009.9
20260503001605 54 160 2.0 3.0 0.00 0.01 0.01 72 1009.7
20260503001505 54 160 2.0 4.0 0.00 0.01 0.01 72 1009.7
20260503001405 54 160 2.0 4.0 0.00 0.01 0.01 72 1009.7
20260503001305 54 160 2.0 4.0 0.00 0.01 0.01 72 1009.6
20260503001205 54 160 3.0 4.0 0.00 0.01 0.01 72 1009.6
20260503001105 54 159 3.0 4.0 0.00 0.01 0.01 72 1009.6
20260503001005 54 158 3.0 4.0 0.00 0.01 0.01 72 1009.6
20260503000905 54 157 3.0 4.0 0.00 0.01 0.01 72 1009.6
20260503000805 54 155 3.0 4.0 0.00 0.01 0.01 72 1009.6
20260503000705 54 154 3.0 4.0 0.00 0.01 0.01 72 1009.5
20260503000604 54 153 2.0 4.0 0.00 0.01 0.01 72 1009.5
20260503000505 54 152 2.0 4.0 0.00 0.01 0.01 72 1009.6
20260503000407 54 151 2.0 4.0 0.00 0.01 0.01 72 1009.6
20260503000305 54 149 2.0 3.0 0.00 0.01 0.01 72 1009.6
20260503000205 54 148 2.0 3.0 0.00 0.01 0.01 72 1009.6
20260503000116 54 158 2.0 3.0 0.00 0.01 0.01 72 1009.8
20260503000105 54 147 2.0 3.0 0.00 0.01 0.01 72 1009.6
20260503000005 54 146 2.0 3.0 0.00 0.01 0.01 72 1009.5
20260502235905 54 146 2.0 3.0 0.00 0.01 0.01 72 1009.5
20260502235805 54 146 2.0 3.0 0.00 0.01 0.01 72 1009.5
20260502234606 54 146 2.0 4.0 0.00 0.01 0.01 71 1009.7
20260502234205 54 148 2.0 4.0 0.00 0.01 0.01 71 1009.6
20260502234105 54 147 2.0 4.0 0.00 0.01 0.01 71 1009.6
20260502234005 54 148 2.0 4.0 0.00 0.01 0.01 71 1009.6
20260502233905 54 148 2.0 4.0 0.00 0.01 0.01 71 1009.5
20260502233805 54 147 2.0 4.0 0.00 0.01 0.01 71 1009.6
20260502233705 54 148 2.0 4.0 0.00 0.01 0.01 71 1009.6
20260502233604 54 148 2.0 4.0 0.00 0.01 0.01 71 1009.5
20260502233505 54 148 2.0 4.0 0.00 0.01 0.01 71 1009.6
20260502233404 54 148 2.0 4.0 0.00 0.01 0.01 71 1009.6
20260502233305 55 148 2.0 4.0 0.00 0.01 0.01 71 1009.6
20260502233205 54 148 2.0 4.0 0.00 0.01 0.01 71 1009.5
20260502233114 54 148 2.0 4.0 0.00 0.01 0.01 71 1009.8
20260502233105 55 148 2.0 4.0 0.00 0.01 0.01 71 1009.5
20260502233005 55 148 2.0 4.0 0.00 0.01 0.01 71 1009.5
20260502232905 55 148 2.0 4.0 0.00 0.01 0.01 71 1009.5
20260502232805 55 149 2.0 4.0 0.00 0.01 0.01 71 1009.5
20260502232705 55 151 2.0 4.0 0.00 0.01 0.01 71 1009.5
20260502232605 55 154 2.0 4.0 0.00 0.01 0.01 71 1009.5
20260502232505 55 156 2.0 4.0 0.00 0.01 0.01 71 1009.5
20260502232405 55 159 2.0 4.0 0.00 0.01 0.01 71 1009.5
20260502232305 55 161 2.0 4.0 0.00 0.01 0.01 71 1009.5
20260502232205 55 164 2.0 4.0 0.00 0.01 0.01 71 1009.5
20260502232105 55 165 2.0 4.0 0.00 0.01 0.01 71 1009.6
20260502232005 55 165 2.0 4.0 0.00 0.01 0.01 71 1009.5
20260502231904 55 163 2.0 4.0 0.00 0.01 0.01 71 1009.5
20260502231805 55 160 2.0 4.0 0.00 0.01 0.01 71 1009.5
20260502231705 55 156 2.0 4.0 0.00 0.01 0.01 71 1009.5
20260502231607 54 158 2.0 4.0 0.00 0.01 0.01 71 1009.7
20260502231605 55 152 2.0 4.0 0.00 0.01 0.01 71 1009.5
20260502231505 55 149 2.0 4.0 0.00 0.01 0.01 71 1009.5
20260502231404 55 146 2.0 4.0 0.00 0.01 0.01 71 1009.5
20260502231305 55 143 2.0 4.0 0.00 0.01 0.01 71 1009.5
20260502231205 55 137 2.0 4.0 0.00 0.01 0.01 71 1009.5
20260502231105 55 134 2.0 4.0 0.00 0.01 0.01 71 1009.6
20260502231005 55 129 2.0 4.0 0.00 0.01 0.01 71 1009.5
20260502230905 55 126 2.0 4.0 0.00 0.01 0.01 71 1009.5
20260502230805 55 126 1.0 4.0 0.00 0.01 0.01 71 1009.5
20260502230605 55 127 1.0 4.0 0.00 0.01 0.01 71 1009.5
20260502230505 55 127 2.0 4.0 0.00 0.01 0.01 71 1009.5
20260502230405 55 127 2.0 4.0 0.00 0.01 0.01 71 1009.5
20260502230304 55 127 1.0 4.0 0.00 0.01 0.01 71 1009.5
20260502230205 55 127 1.0 4.0 0.00 0.01 0.01 71 1009.5
20260502230115 54 127 1.0 4.0 0.01 0.01 0.01 71 1009.8
20260502230105 55 127 1.0 4.0 0.00 0.01 0.01 71 1009.5
20260502230005 55 127 2.0 3.0 0.01 0.01 0.01 71 1009.5
20260502225905 55 126 2.0 4.0 0.01 0.01 0.01 71 1009.6
20260502225804 54 126 2.0 4.0 0.01 0.01 0.01 71 1009.6
20260502225705 54 126 2.0 4.0 0.01 0.01 0.01 71 1009.6
20260502225605 54 126 2.0 4.0 0.01 0.01 0.01 71 1009.6
20260502225505 54 126 2.0 4.0 0.01 0.01 0.01 71 1009.6
20260502225405 54 126 2.0 4.0 0.01 0.01 0.01 71 1009.6
20260502225305 54 126 2.0 4.0 0.01 0.01 0.01 71 1009.6
20260502225205 54 126 2.0 4.0 0.01 0.01 0.01 71 1009.6
20260502225104 54 126 2.0 4.0 0.01 0.01 0.01 71 1009.6
20260502225005 54 126 2.0 4.0 0.01 0.01 0.01 71 1009.6
20260502224905 54 126 2.0 3.0 0.01 0.01 0.01 70 1009.6
20260502224805 54 126 2.0 3.0 0.01 0.01 0.01 70 1009.5
20260502224705 54 125 2.0 3.0 0.01 0.01 0.01 70 1009.6
20260502224605 54 125 2.0 4.0 0.01 0.01 0.01 70 1009.6
20260502224516 54 126 1.0 4.0 0.01 0.01 0.01 70 1009.8
20260502224505 54 125 2.0 4.0 0.01 0.01 0.01 70 1009.5
20260502224405 54 125 2.0 4.0 0.01 0.01 0.01 70 1009.5
20260502224304 54 123 2.0 4.0 0.01 0.01 0.01 71 1009.5
20260502224205 54 121 2.0 4.0 0.01 0.01 0.01 70 1009.5
20260502223604 54 88 1.0 4.0 0.01 0.01 0.01 70 1009.5
20260502223505 54 80 1.0 3.0 0.01 0.01 0.01 70 1009.5
20260502223405 54 71 1.0 3.0 0.01 0.01 0.01 70 1009.5
20260502223305 54 61 1.0 3.0 0.01 0.01 0.01 70 1009.5
20260502223205 54 56 1.0 3.0 0.01 0.01 0.01 70 1009.5
20260502223111 54 72 1.0 3.0 0.01 0.01 0.01 71 1009.8
20260502223105 54 51 1.0 3.0 0.01 0.01 0.01 71 1009.6
20260502223005 54 40 1.0 3.0 0.01 0.01 0.01 71 1009.6
20260502222905 54 33 1.0 3.0 0.01 0.01 0.01 71 1009.6
20260502222804 54 23 1.0 3.0 0.01 0.01 0.01 71 1009.6
20260502222705 54 12 1.0 3.0 0.01 0.01 0.01 71 1009.6
20260502222605 54 7 1.0 2.0 0.01 0.01 0.01 71 1009.7
20260502222505 54 7 1.0 2.0 0.01 0.01 0.01 71 1009.7
20260502222405 54 7 0.0 2.0 0.01 0.01 0.01 71 1009.7
20260502222305 54 7 0.0 2.0 0.01 0.01 0.01 71 1009.7
20260502222205 54 6 0.0 2.0 0.01 0.01 0.01 71 1009.7
20260502222105 54 6 0.0 2.0 0.01 0.01 0.01 71 1009.8
20260502222005 54 6 0.0 2.0 0.01 0.01 0.01 71 1009.7
20260502221905 54 6 0.0 2.0 0.01 0.01 0.01 71 1009.6
20260502221805 54 6 0.0 1.0 0.01 0.01 0.01 71 1009.6
20260502221705 54 6 0.0 1.0 0.01 0.01 0.01 71 1009.7
20260502221604 54 6 0.0 1.0 0.01 0.01 0.01 71 1009.6
20260502221505 54 6 0.0 1.0 0.01 0.01 0.01 71 1009.6
20260502221503 53 6 0.0 1.0 0.01 0.01 0.01 71 1009.9
20260502221405 54 6 0.0 2.0 0.01 0.01 0.01 71 1009.6
20260502221305 54 6 0.0 2.0 0.01 0.01 0.01 71 1009.6
20260502221205 54 6 0.0 2.0 0.01 0.01 0.01 71 1009.6
20260502221105 54 6 0.0 2.0 0.01 0.01 0.01 71 1009.6
20260502221005 54 6 1.0 2.0 0.01 0.01 0.01 71 1009.6
20260502220905 54 7 1.0 2.0 0.01 0.01 0.01 71 1009.6
20260502220805 54 7 1.0 2.0 0.01 0.01 0.01 71 1009.6
20260502220705 54 7 1.0 2.0 0.01 0.01 0.01 71 1009.6
20260502220605 54 7 1.0 2.0 0.01 0.01 0.01 71 1009.6
20260502220505 54 7 1.0 2.0 0.01 0.01 0.01 71 1009.6
20260502220405 54 7 1.0 2.0 0.01 0.01 0.01 71 1009.6
20260502220305 54 7 1.0 2.0 0.01 0.01 0.01 71 1009.6
20260502220205 54 7 1.0 3.0 0.01 0.01 0.01 71 1009.6
20260502220108 0 6 0.0 3.0 0.00 0.00 0.00 1009.9
20260502220105 54 7 1.0 3.0 0.01 0.01 0.01 71 1009.6
20260502220005 54 7 1.0 3.0 0.00 0.00 0.00 71 1009.6
20260502215905 54 7 1.0 3.0 0.00 0.00 0.00 71 1009.6
20260502215805 54 7 1.0 3.0 0.00 0.00 0.00 71 1009.6
20260502215704 54 7 1.0 3.0 0.00 0.00 0.00 71 1009.6
20260502215605 54 7 1.0 3.0 0.00 0.00 0.00 71 1009.6
20260502215505 54 7 1.0 3.0 0.00 0.00 0.00 71 1009.6
20260502215405 54 7 1.0 3.0 0.00 0.00 0.00 71 1009.6
20260502215305 54 7 1.0 3.0 0.00 0.00 0.00 71 1009.5
20260502215205 54 7 1.0 2.0 0.00 0.00 0.00 72 1009.6
20260502215105 54 7 1.0 2.0 0.00 0.00 0.00 72 1009.6
20260502215005 54 7 1.0 2.0 0.00 0.00 0.00 72 1009.6
20260502214905 54 7 1.0 2.0 0.00 0.00 0.00 72 1009.6
20260502214805 54 7 1.0 2.0 0.00 0.00 0.00 72 1009.6
20260502214705 54 7 1.0 2.0 0.00 0.00 0.00 72 1009.5
20260502214620 0 6 0.0 2.0 0.00 0.00 0.00 1009.8
20260502214605 54 7 1.0 2.0 0.00 0.00 0.00 72 1009.5
20260502214505 54 7 1.0 2.0 0.00 0.00 0.00 72 1009.6
20260502214405 54 7 1.0 2.0 0.00 0.00 0.00 72 1009.5
20260502214305 54 7 1.0 3.0 0.00 0.00 0.00 72 1009.5
20260502214205 54 7 1.0 3.0 0.00 0.00 0.00 72 1009.5
20260502214105 54 7 1.0 3.0 0.00 0.00 0.00 72 1009.5
20260502214005 54 7 1.0 3.0 0.00 0.00 0.00 72 1009.5
20260502213905 54 7 1.0 3.0 0.00 0.00 0.00 72 1009.5
20260502213804 54 7 1.0 3.0 0.00 0.00 0.00 72 1009.5
20260502213705 54 7 1.0 3.0 0.00 0.00 0.00 72 1009.5
20260502213605 54 7 1.0 3.0 0.00 0.00 0.00 72 1009.5
20260502213505 54 7 1.0 3.0 0.00 0.00 0.00 72 1009.5
20260502213405 54 7 1.0 3.0 0.00 0.00 0.00 72 1009.6
20260502213305 54 7 1.0 2.0 0.00 0.00 0.00 72 1009.5
20260502213205 54 7 1.0 2.0 0.00 0.00 0.00 72 1009.5
20260502213107 53 6 0.0 2.0 0.00 0.00 0.00 73 1009.7
20260502213105 54 7 1.0 2.0 0.00 0.00 0.00 73 1009.5
20260502213004 54 7 1.0 2.0 0.00 0.00 0.00 73 1009.6
20260502212905 54 7 1.0 2.0 0.00 0.00 0.00 73 1009.6
20260502212805 54 7 1.0 2.0 0.00 0.00 0.00 73 1009.6
20260502212704 54 7 1.0 2.0 0.00 0.00 0.00 73 1009.6
20260502212605 54 7 1.0 2.0 0.00 0.00 0.00 73 1009.6
20260502212506 54 7 1.0 2.0 0.00 0.00 0.00 73 1009.6
20260502212405 54 7 1.0 2.0 0.00 0.00 0.00 73 1009.6
20260502212305 54 7 1.0 2.0 0.00 0.00 0.00 73 1009.6
20260502212205 54 7 1.0 2.0 0.00 0.00 0.00 73 1009.5
20260502212105 54 7 1.0 2.0 0.00 0.00 0.00 74 1009.6
20260502212005 54 7 1.0 2.0 0.00 0.00 0.00 74 1009.6
20260502211905 54 7 1.0 2.0 0.00 0.00 0.00 74 1009.6
20260502211805 54 7 1.0 2.0 0.00 0.00 0.00 74 1009.6
20260502211618 53 6 0.0 2.0 0.00 0.00 0.00 73 1009.8
20260502211105 54 7 1.0 3.0 0.00 0.00 0.00 74 1009.5
20260502211005 54 7 1.0 3.0 0.00 0.00 0.00 74 1009.5
20260502210904 54 7 1.0 3.0 0.00 0.00 0.00 74 1009.5
20260502210805 54 7 1.0 3.0 0.00 0.00 0.00 74 1009.5
20260502210705 54 7 1.0 3.0 0.00 0.00 0.00 74 1009.5
20260502210605 54 7 1.0 3.0 0.00 0.00 0.00 74 1009.5
20260502210505 54 7 1.0 2.0 0.00 0.00 0.00 74 1009.5
20260502210404 54 7 1.0 3.0 0.00 0.00 0.00 74 1009.5
20260502210305 54 7 1.0 3.0 0.00 0.00 0.00 74 1009.6
20260502210205 54 7 2.0 3.0 0.00 0.00 0.00 74 1009.6
20260502210117 0 6 0.0 3.0 0.00 0.00 0.00 1009.9
20260502210105 54 7 2.0 3.0 0.00 0.00 0.00 74 1009.7
20260502210005 54 7 2.0 3.0 0.00 0.00 0.00 74 1009.7
20260502205905 54 7 2.0 3.0 0.00 0.00 0.00 74 1009.7
20260502205804 54 7 2.0 4.0 0.00 0.00 0.00 74 1009.7
20260502205705 54 7 2.0 4.0 0.00 0.00 0.00 74 1009.6
20260502205605 54 7 3.0 4.0 0.00 0.00 0.00 74 1009.6
20260502205505 54 8 3.0 4.0 0.00 0.00 0.00 74 1009.6
20260502205405 54 9 3.0 4.0 0.00 0.00 0.00 74 1009.6
20260502205305 54 10 3.0 4.0 0.00 0.00 0.00 74 1009.6
20260502205205 54 11 3.0 4.0 0.00 0.00 0.00 74 1009.6
20260502205105 54 12 3.0 4.0 0.00 0.00 0.00 74 1009.6
20260502205004 54 13 3.0 4.0 0.00 0.00 0.00 74 1009.6
20260502204905 54 14 3.0 4.0 0.00 0.00 0.00 74 1009.6
20260502204805 54 14 3.0 4.0 0.00 0.00 0.00 74 1009.6
20260502204705 54 14 3.0 4.0 0.00 0.00 0.00 74 1009.6
20260502204618 53 8 3.0 4.0 0.00 0.00 0.00 74 1009.8
20260502204605 54 14 3.0 4.0 0.00 0.00 0.00 74 1009.6
20260502204505 54 13 3.0 4.0 0.00 0.00 0.00 74 1009.6
20260502204405 54 13 3.0 4.0 0.00 0.00 0.00 74 1009.6
20260502204304 54 12 3.0 4.0 0.00 0.00 0.00 74 1009.7
20260502204205 54 11 3.0 4.0 0.00 0.00 0.00 74 1009.7
20260502204105 54 10 3.0 4.0 0.00 0.00 0.00 74 1009.7
20260502204005 54 9 3.0 4.0 0.00 0.00 0.00 74 1009.7
20260502203905 54 9 3.0 4.0 0.00 0.00 0.00 74 1009.7
20260502203805 54 9 3.0 4.0 0.00 0.00 0.00 74 1009.7
20260502203705 54 8 3.0 4.0 0.00 0.00 0.00 75 1009.7
20260502203605 54 7 3.0 5.0 0.00 0.00 0.00 75 1009.7
20260502203504 54 6 3.0 5.0 0.00 0.00 0.00 75 1009.7
20260502203405 54 4 4.0 5.0 0.00 0.00 0.00 75 1009.8
20260502203305 54 2 4.0 5.0 0.00 0.00 0.00 75 1009.7
20260502203205 54 1 4.0 5.0 0.00 0.00 0.00 75 1009.8
20260502203105 54 358 4.0 5.0 0.00 0.00 0.00 75 1009.8
20260502203103 54 9 2.0 5.0 0.00 0.00 0.00 75 1010.0
20260502203005 54 356 4.0 5.0 0.00 0.00 0.00 75 1009.8
20260502202905 54 355 4.0 5.0 0.00 0.00 0.00 75 1009.7
20260502202805 54 353 4.0 5.0 0.00 0.00 0.00 76 1009.8
20260502202705 54 352 4.0 6.0 0.00 0.00 0.00 75 1009.8
20260502202605 54 351 4.0 6.0 0.00 0.00 0.00 75 1009.8
20260502202505 54 350 4.0 6.0 0.00 0.00 0.00 75 1009.8
20260502202405 54 350 4.0 6.0 0.00 0.00 0.00 75 1009.8
20260502202305 54 349 4.0 6.0 0.00 0.00 0.00 75 1009.8
20260502202204 54 349 4.0 6.0 0.00 0.00 0.00 75 1009.8
20260502202105 55 349 4.0 6.0 0.00 0.00 0.00 74 1009.9
20260502202005 55 350 4.0 6.0 0.00 0.00 0.00 74 1009.9
20260502201904 55 350 4.0 6.0 0.00 0.00 0.00 74 1009.8
20260502201805 55 351 4.0 6.0 0.00 0.00 0.00 74 1009.9
20260502201705 55 352 4.0 6.0 0.00 0.00 0.00 74 1009.9
20260502201618 54 344 4.0 6.0 0.00 0.00 0.00 74 1010.1
20260502201605 55 354 4.0 5.0 0.00 0.00 0.00 74 1009.9
20260502201505 55 356 3.0 5.0 0.00 0.00 0.00 74 1009.9
20260502201405 55 358 3.0 4.0 0.00 0.00 0.00 74 1009.9
20260502201305 55 1 3.0 4.0 0.00 0.00 0.00 74 1009.9
20260502201205 55 3 3.0 5.0 0.00 0.00 0.00 74 1009.9
20260502201104 55 4 4.0 5.0 0.00 0.00 0.00 74 1009.9
20260502201005 55 6 4.0 5.0 0.00 0.00 0.00 74 1010.0
20260502200905 55 7 4.0 5.0 0.00 0.00 0.00 74 1010.0
20260502200804 55 9 4.0 6.0 0.00 0.00 0.00 74 1010.0
20260502200705 55 10 4.0 6.0 0.00 0.00 0.00 74 1010.0
20260502200605 55 11 4.0 7.0 0.00 0.00 0.00 73 1010.0
20260502200505 55 10 5.0 7.0 0.00 0.00 0.00 73 1010.1
20260502200405 55 10 5.0 7.0 0.00 0.00 0.00 73 1010.0
20260502200305 55 9 5.0 7.0 0.00 0.00 0.00 73 1010.0
20260502200205 55 9 5.0 7.0 0.00 0.00 0.00 73 1010.0
20260502200105 55 8 5.0 7.0 0.00 0.00 0.00 73 1010.0
20260502200011 55 11 4.0 6.0 0.00 0.00 0.00 73 1010.2
20260502200005 55 7 5.0 7.0 0.00 0.00 0.00 73 1010.0
20260502195904 55 3 5.0 8.0 0.00 0.00 0.00 73 1010.0
20260502195805 55 1 5.0 8.0 0.00 0.00 0.00 73 1010.0
20260502195704 55 358 5.0 8.0 0.00 0.00 0.00 72 1010.0
20260502195605 55 356 6.0 8.0 0.00 0.00 0.00 72 1010.0
20260502195505 55 355 6.0 8.0 0.00 0.00 0.00 72 1010.0
20260502195405 55 355 6.0 8.0 0.00 0.00 0.00 72 1010.0
20260502195305 55 354 6.0 8.0 0.00 0.00 0.00 73 1010.1
20260502195204 55 353 6.0 8.0 0.00 0.00 0.00 73 1010.1
20260502195105 55 353 6.0 8.0 0.00 0.00 0.00 73 1010.2
20260502195005 55 353 6.0 8.0 0.00 0.00 0.00 73 1010.1
20260502194904 55 354 6.0 8.0 0.00 0.00 0.00 73 1010.1
20260502194805 55 354 6.0 8.0 0.00 0.00 0.00 73 1010.1
20260502194705 55 355 6.0 8.0 0.00 0.00 0.00 73 1010.1
20260502194619 55 354 6.0 8.0 0.00 0.00 0.00 73 1010.3
20260502194605 55 356 5.0 8.0 0.00 0.00 0.00 72 1010.1
20260502194505 55 356 5.0 8.0 0.00 0.00 0.00 72 1010.1
20260502193905 55 5 3.0 5.0 0.00 0.00 0.00 70 1010.0
20260502193805 55 6 3.0 4.0 0.00 0.00 0.00 70 1010.1
20260502193705 55 7 3.0 4.0 0.00 0.00 0.00 70 1010.0
20260502193605 55 9 3.0 4.0 0.00 0.00 0.00 70 1010.1
20260502193505 55 10 2.0 4.0 0.00 0.00 0.00 70 1010.1
20260502193405 55 12 2.0 4.0 0.00 0.00 0.00 70 1010.1
20260502193305 55 15 2.0 4.0 0.00 0.00 0.00 70 1010.1
20260502193205 55 17 2.0 4.0 0.00 0.00 0.00 70 1010.2
20260502193105 55 18 2.0 3.0 0.00 0.00 0.00 70 1010.1
20260502193009 54 17 1.0 3.0 0.00 0.00 0.00 70 1010.4
20260502193004 55 18 2.0 3.0 0.00 0.00 0.00 70 1010.2
20260502192905 55 18 2.0 3.0 0.00 0.00 0.00 70 1010.1
20260502192805 54 18 2.0 4.0 0.00 0.00 0.00 70 1010.1
20260502192705 54 18 2.0 4.0 0.00 0.00 0.00 70 1010.2
20260502192604 54 18 2.0 4.0 0.00 0.00 0.00 70 1010.2
20260502192505 54 18 2.0 4.0 0.00 0.00 0.00 70 1010.2
20260502192405 54 18 2.0 4.0 0.00 0.00 0.00 70 1010.2
20260502192305 54 18 2.0 4.0 0.00 0.00 0.00 70 1010.1
20260502192205 54 18 2.0 4.0 0.00 0.00 0.00 70 1010.2
20260502192105 54 18 2.0 4.0 0.00 0.00 0.00 70 1010.2
20260502192005 54 18 2.0 4.0 0.00 0.00 0.00 70 1010.2
20260502191905 54 18 2.0 4.0 0.00 0.00 0.00 70 1010.2
20260502191804 54 18 2.0 4.0 0.00 0.00 0.00 70 1010.2
20260502191705 54 18 2.0 4.0 0.00 0.00 0.00 70 1010.2
20260502191613 54 17 2.0 4.0 0.00 0.00 0.00 70 1010.5
20260502191605 54 19 3.0 4.0 0.00 0.00 0.00 70 1010.2
20260502191505 54 19 3.0 4.0 0.00 0.00 0.00 70 1010.3
20260502191404 54 20 3.0 4.0 0.00 0.00 0.00 70 1010.3
20260502191304 54 21 3.0 4.0 0.00 0.00 0.00 70 1010.3
20260502191205 54 22 3.0 4.0 0.00 0.00 0.00 70 1010.3
20260502191105 54 22 3.0 4.0 0.00 0.00 0.00 71 1010.3
20260502191005 54 23 3.0 4.0 0.00 0.00 0.00 71 1010.4
20260502190404 54 17 3.0 4.0 0.00 0.00 0.00 71 1010.4
20260502190305 54 15 3.0 4.0 0.00 0.00 0.00 71 1010.4
20260502190204 55 13 3.0 4.0 0.00 0.00 0.00 71 1010.4
20260502190105 55 11 2.0 4.0 0.00 0.00 0.00 71 1010.4
20260502190011 54 23 2.0 4.0 0.00 0.00 0.00 71 1010.6
20260502190004 55 8 2.0 4.0 0.00 0.00 0.00 71 1010.4
20260502185905 55 6 2.0 4.0 0.00 0.00 0.00 71 1010.4
20260502185805 55 4 2.0 4.0 0.00 0.00 0.00 71 1010.4
20260502185705 55 2 2.0 3.0 0.00 0.00 0.00 71 1010.4
20260502185605 55 2 2.0 4.0 0.00 0.00 0.00 71 1010.5
20260502185504 55 2 2.0 5.0 0.00 0.00 0.00 71 1010.5
20260502185405 55 2 2.0 5.0 0.00 0.00 0.00 71 1010.5
20260502185306 55 2 2.0 5.0 0.00 0.00 0.00 71 1010.5
20260502185205 55 2 2.0 5.0 0.00 0.00 0.00 71 1010.6
20260502185105 55 2 3.0 5.0 0.00 0.00 0.00 71 1010.5
20260502185005 55 2 3.0 5.0 0.00 0.00 0.00 71 1010.5
20260502184611 54 2 3.0 5.0 0.00 0.00 0.00 71 1010.7
20260502183805 55 341 4.0 6.0 0.00 0.00 0.00 72 1010.6
20260502183705 55 340 4.0 6.0 0.00 0.00 0.00 73 1010.6
20260502183605 55 339 5.0 7.0 0.00 0.00 0.00 73 1010.6
20260502183505 55 338 5.0 7.0 0.00 0.00 0.00 73 1010.6
20260502183405 55 337 5.0 7.0 0.00 0.00 0.00 73 1010.6
20260502183304 55 336 6.0 8.0 0.00 0.00 0.00 73 1010.7
20260502183205 55 336 6.0 8.0 0.00 0.00 0.00 73 1010.7
20260502183105 55 336 6.0 8.0 0.00 0.00 0.00 74 1010.7
20260502183005 55 331 4.0 8.0 0.00 0.00 0.00 73 1010.9
20260502182905 55 335 7.0 8.0 0.00 0.00 0.00 73 1010.6
20260502182805 55 334 7.0 8.0 0.00 0.00 0.00 73 1010.6
20260502182705 55 334 7.0 8.0 0.00 0.00 0.00 73 1010.6
20260502182605 56 333 7.0 8.0 0.00 0.00 0.00 73 1010.6
20260502182504 56 331 7.0 8.0 0.00 0.00 0.00 73 1010.6
20260502182404 56 330 7.0 9.0 0.00 0.00 0.00 74 1010.6
20260502182306 56 329 7.0 9.0 0.00 0.00 0.00 74 1010.7
20260502182205 56 328 7.0 9.0 0.00 0.00 0.00 74 1010.7
20260502182105 56 328 8.0 10.0 0.00 0.00 0.00 74 1010.7
20260502182004 56 327 8.0 10.0 0.00 0.00 0.00 74 1010.6
20260502181905 56 326 8.0 10.0 0.00 0.00 0.00 74 1010.7
20260502181804 56 326 8.0 10.0 0.00 0.00 0.00 74 1010.6
20260502181705 56 325 8.0 10.0 0.00 0.00 0.00 74 1010.6
20260502181610 55 329 7.0 10.0 0.00 0.00 0.00 74 1010.8
20260502181605 56 325 8.0 10.0 0.00 0.00 0.00 74 1010.7
20260502181504 56 325 8.0 10.0 0.00 0.00 0.00 74 1010.7
20260502181405 56 325 9.0 10.0 0.00 0.00 0.00 74 1010.7
20260502181304 56 324 9.0 11.0 0.00 0.00 0.00 74 1010.6
20260502181205 55 324 9.0 11.0 0.00 0.00 0.00 74 1010.6
20260502181105 55 324 9.0 11.0 0.00 0.00 0.00 74 1010.7
20260502181005 55 323 9.0 11.0 0.00 0.00 0.00 74 1010.6
20260502180904 55 322 8.0 11.0 0.00 0.00 0.00 74 1010.7
20260502180805 55 321 8.0 11.0 0.00 0.00 0.00 74 1010.6
20260502180705 55 320 8.0 11.0 0.00 0.00 0.00 74 1010.6
20260502180605 55 318 7.0 11.0 0.00 0.00 0.00 75 1010.6
20260502180505 55 316 7.0 11.0 0.00 0.00 0.00 75 1010.6
20260502180404 55 313 6.0 11.0 0.00 0.00 0.00 75 1010.6
20260502180305 55 311 6.0 10.0 0.00 0.00 0.00 77 1010.6
20260502180204 55 308 5.0 10.0 0.00 0.00 0.00 77 1010.6
20260502180105 55 306 5.0 9.0 0.00 0.00 0.00 77 1010.6
20260502170505 52 44 1.0 1.0 0.00 0.00 0.00 81 1011.1
20260502170404 52 44 1.0 2.0 0.00 0.00 0.00 81 1011.1
20260502170305 52 44 1.0 2.0 0.00 0.00 0.00 81 1011.1
20260502170205 52 44 1.0 2.0 0.00 0.00 0.00 81 1011.1
20260502170115 51 44 0.0 2.0 0.00 0.00 0.00 81 1011.3
20260502170104 52 45 1.0 2.0 0.00 0.00 0.00 82 1011.1
20260502164305 51 77 1.0 2.0 0.00 0.00 0.00 82 1010.9
20260502164204 51 77 1.0 2.0 0.00 0.00 0.00 82 1010.9
20260502164105 51 78 1.0 3.0 0.00 0.00 0.00 83 1010.9
20260502164005 51 78 1.0 3.0 0.00 0.00 0.00 83 1010.9
20260502163904 51 78 1.0 3.0 0.00 0.00 0.00 83 1010.9
20260502163805 51 78 1.0 3.0 0.00 0.00 0.00 83 1010.9
20260502163705 51 78 1.0 3.0 0.00 0.00 0.00 83 1010.9
20260502163604 51 78 1.0 3.0 0.00 0.00 0.00 83 1010.9
20260502163505 51 78 1.0 3.0 0.00 0.00 0.00 83 1010.9
20260502163405 51 78 1.0 3.0 0.00 0.00 0.00 83 1011.1
20260502163113 0 80 1.0 3.0 0.00 0.00 0.00 1011.3
20260502162204 52 301 2.0 3.0 0.00 0.00 0.00 83 1011.3
20260502162105 52 302 2.0 3.0 0.00 0.00 0.00 83 1011.3
20260502162005 52 302 2.0 3.0 0.00 0.00 0.00 83 1011.4
20260502161905 52 301 2.0 3.0 0.00 0.00 0.00 83 1011.3
20260502161805 52 302 2.0 3.0 0.00 0.00 0.00 83 1011.3
20260502161705 52 301 2.0 3.0 0.00 0.00 0.00 83 1011.3
20260502161608 0 302 1.0 3.0 0.00 0.00 0.00 1011.5
20260502161604 52 301 2.0 3.0 0.00 0.00 0.00 83 1011.3
20260502161505 52 302 2.0 3.0 0.00 0.00 0.00 83 1011.4
20260502161404 52 302 2.0 3.0 0.00 0.00 0.00 83 1011.4
20260502161305 52 302 2.0 3.0 0.00 0.00 0.00 83 1011.4
20260502161205 52 302 2.0 3.0 0.00 0.00 0.00 83 1011.4
20260502161104 52 301 2.0 3.0 0.00 0.00 0.00 83 1011.4
20260502161005 52 302 2.0 3.0 0.00 0.00 0.00 83 1011.3
20260502160904 52 302 2.0 3.0 0.00 0.00 0.00 83 1011.3
20260502160805 52 301 2.0 3.0 0.00 0.00 0.00 83 1011.3
20260502160705 52 301 2.0 3.0 0.00 0.00 0.00 83 1011.3
20260502160604 52 302 2.0 3.0 0.00 0.00 0.00 83 1011.3
20260502160505 52 301 2.0 3.0 0.00 0.00 0.00 83 1011.4
20260502160405 52 302 2.0 3.0 0.00 0.00 0.00 83 1011.4
20260502160304 52 302 2.0 3.0 0.00 0.00 0.00 83 1011.4
20260502160205 52 302 2.0 3.0 0.00 0.00 0.00 83 1011.4
20260502160112 0 302 1.0 3.0 0.00 0.00 0.00 1011.5
20260502160105 52 302 2.0 3.0 0.00 0.00 0.00 83 1011.3
20260502152305 52 289 2.0 4.0 0.00 0.00 0.00 82 1011.6
20260502152205 52 289 2.0 4.0 0.00 0.00 0.00 82 1011.6
20260502152104 52 289 2.0 4.0 0.00 0.00 0.00 82 1011.7
20260502152005 52 289 2.0 3.0 0.00 0.00 0.00 82 1011.7
20260502151905 52 289 2.0 3.0 0.00 0.00 0.00 82 1011.7
20260502151804 52 288 2.0 3.0 0.00 0.00 0.00 82 1011.6
20260502151705 52 290 2.0 3.0 0.00 0.00 0.00 82 1011.6
20260502151605 52 291 2.0 3.0 0.00 0.00 0.00 82 1011.6
20260502151513 52 289 1.0 3.0 0.00 0.00 0.00 82 1011.9
20260502151504 52 293 2.0 3.0 0.00 0.00 0.00 82 1011.6
20260502151405 52 295 2.0 3.0 0.00 0.00 0.00 82 1011.6
20260502151305 52 298 2.0 3.0 0.00 0.00 0.00 82 1011.6
20260502151205 52 300 2.0 3.0 0.00 0.00 0.00 82 1011.6
20260502151105 52 302 2.0 3.0 0.00 0.00 0.00 82 1011.6
20260502151004 52 305 2.0 3.0 0.00 0.00 0.00 82 1011.6
20260502150905 52 308 2.0 3.0 0.00 0.00 0.00 82 1011.6
20260502150805 52 311 2.0 3.0 0.00 0.00 0.00 82 1011.7
20260502150705 52 313 2.0 3.0 0.00 0.00 0.00 82 1011.6
20260502150604 52 314 2.0 4.0 0.00 0.00 0.00 82 1011.6
20260502150505 52 315 2.0 4.0 0.00 0.00 0.00 82 1011.6
20260502150405 52 317 2.0 4.0 0.00 0.00 0.00 82 1011.6
20260502150304 52 319 2.0 4.0 0.00 0.00 0.00 82 1011.6
20260502150205 52 322 2.0 4.0 0.00 0.00 0.00 82 1011.5
20260502150118 52 319 1.0 4.0 0.00 0.00 0.00 82 1011.8
20260502150104 52 325 3.0 4.0 0.00 0.00 0.00 82 1011.5
20260502140107 52 240 2.0 3.0 0.00 0.00 0.00 82 1011.9
20260502140104 52 240 2.0 3.0 0.00 0.00 0.00 82 1011.7
20260502130705 52 173 1.0 3.0 0.00 0.00 0.00 83 1011.7
20260502130604 52 173 1.0 4.0 0.00 0.00 0.00 83 1011.6
20260502130504 52 173 1.0 4.0 0.00 0.00 0.00 83 1011.6
20260502130405 52 173 1.0 4.0 0.00 0.00 0.00 83 1011.6
20260502130304 52 173 1.0 4.0 0.00 0.00 0.00 84 1011.6
20260502130205 52 173 1.0 4.0 0.00 0.00 0.00 84 1011.6
20260502130107 52 173 0.0 4.0 0.00 0.00 0.00 84 1011.8
20260502130104 52 173 1.0 4.0 0.00 0.00 0.00 84 1011.6
20260502123804 52 144 3.0 7.0 0.00 0.00 0.00 84 1011.3
20260502123704 52 149 3.0 7.0 0.00 0.00 0.00 84 1011.4
20260502123605 52 154 3.0 7.0 0.00 0.00 0.00 84 1011.4
20260502123504 52 158 3.0 7.0 0.00 0.00 0.00 84 1011.5
20260502123404 52 161 2.0 7.0 0.00 0.00 0.00 83 1011.4
20260502123304 52 164 2.0 7.0 0.00 0.00 0.00 83 1011.4
20260502123204 52 170 2.0 6.0 0.00 0.00 0.00 83 1011.5
20260502123111 51 167 2.0 4.0 0.00 0.00 0.00 83 1011.7
20260502123105 52 174 2.0 4.0 0.00 0.00 0.00 83 1011.4
20260502123004 52 176 2.0 4.0 0.00 0.00 0.00 83 1011.5
20260502122905 52 179 1.0 4.0 0.00 0.00 0.00 83 1011.5
20260502122804 52 187 1.0 4.0 0.00 0.00 0.00 83 1011.5
20260502122705 52 200 1.0 3.0 0.00 0.00 0.00 83 1011.4
20260502122604 52 213 1.0 3.0 0.00 0.00 0.00 83 1011.4
20260502122505 51 222 1.0 3.0 0.00 0.00 0.00 83 1011.4
20260502122405 51 237 1.0 3.0 0.00 0.00 0.00 83 1011.4
20260502122306 51 250 1.0 3.0 0.00 0.00 0.00 83 1011.4
20260502122205 51 262 1.0 2.0 0.00 0.00 0.00 83 1011.5
20260502122104 51 262 1.0 2.0 0.00 0.00 0.00 83 1011.5
20260502122004 51 262 1.0 2.0 0.00 0.00 0.00 83 1011.5
20260502121905 51 262 1.0 2.0 0.00 0.00 0.00 83 1011.5
20260502121804 51 262 1.0 2.0 0.00 0.00 0.00 83 1011.5
20260502121705 51 262 1.0 2.0 0.00 0.00 0.00 83 1011.5
20260502121616 51 261 0.0 2.0 0.00 0.00 0.00 83 1011.8
20260502121605 51 262 1.0 2.0 0.00 0.00 0.00 83 1011.6
20260502121504 51 262 1.0 3.0 0.00 0.00 0.00 83 1011.6
20260502121405 51 262 1.0 3.0 0.00 0.00 0.00 83 1011.6
20260502121304 51 265 1.0 4.0 0.00 0.00 0.00 83 1011.6
20260502121204 51 269 1.0 4.0 0.00 0.00 0.00 83 1011.6
20260502121105 51 270 2.0 4.0 0.00 0.00 0.00 83 1011.6
20260502120108 51 282 1.0 4.0 0.00 0.00 0.00 83 1012.0
20260502115905 51 280 2.0 4.0 0.00 0.00 0.00 83 1011.6
20260502115805 51 278 2.0 4.0 0.00 0.00 0.00 83 1011.6
20260502115704 51 276 2.0 6.0 0.00 0.00 0.00 83 1011.6
20260502115604 51 275 3.0 6.0 0.00 0.00 0.00 83 1011.6
20260502115505 51 274 3.0 6.0 0.00 0.00 0.00 83 1011.6
20260502115404 51 272 3.0 6.0 0.00 0.00 0.00 83 1011.7
20260502115306 51 270 3.0 6.0 0.00 0.00 0.00 83 1011.7
20260502115205 51 270 3.0 6.0 0.00 0.00 0.00 83 1011.7
20260502115104 51 268 3.0 6.0 0.00 0.00 0.00 83 1011.7
20260502115005 51 266 3.0 6.0 0.00 0.00 0.00 83 1011.8
20260502114905 51 265 3.0 7.0 0.00 0.00 0.00 83 1011.8
20260502114804 51 261 3.0 8.0 0.00 0.00 0.00 83 1011.8
20260502114705 51 256 3.0 8.0 0.00 0.00 0.00 83 1011.8
20260502114617 50 277 2.0 8.0 0.00 0.00 0.00 83 1012.1
20260502114604 51 251 3.0 8.0 0.00 0.00 0.00 83 1011.9
20260502114505 51 244 3.0 9.0 0.00 0.00 0.00 83 1011.9
20260502114405 51 240 3.0 9.0 0.00 0.00 0.00 83 1011.8
20260502113805 51 224 5.0 9.0 0.00 0.00 0.00 83 1011.9
20260502113704 51 223 4.0 9.0 0.00 0.00 0.00 83 1011.9
20260502113604 51 223 4.0 9.0 0.00 0.00 0.00 83 1012.0
20260502113505 51 223 5.0 9.0 0.00 0.00 0.00 83 1011.9
20260502113404 50 222 5.0 9.0 0.00 0.00 0.00 83 1011.9
20260502113304 50 217 5.0 11.0 0.00 0.00 0.00 83 1012.0
20260502113205 50 214 5.0 11.0 0.00 0.00 0.00 83 1012.0
20260502113106 50 217 4.0 11.0 0.00 0.00 0.00 83 1012.2
20260502113104 50 210 5.0 11.0 0.00 0.00 0.00 83 1012.0
20260502113005 50 208 5.0 11.0 0.00 0.00 0.00 83 1012.0
20260502112904 50 207 5.0 11.0 0.00 0.00 0.00 83 1012.0
20260502112804 50 204 5.0 11.0 0.00 0.00 0.00 83 1012.0
20260502112705 50 202 5.0 11.0 0.00 0.00 0.00 83 1012.0
20260502112604 50 198 5.0 11.0 0.00 0.00 0.00 83 1012.0
20260502112505 50 195 5.0 11.0 0.00 0.00 0.00 83 1012.0
20260502112404 50 194 5.0 11.0 0.00 0.00 0.00 84 1012.0
20260502112306 50 194 4.0 9.0 0.00 0.00 0.00 84 1012.0
20260502112204 50 194 4.0 9.0 0.00 0.00 0.00 84 1012.0
20260502112105 50 194 4.0 9.0 0.00 0.00 0.00 84 1012.0
20260502112004 50 192 4.0 9.0 0.00 0.00 0.00 84 1011.9
20260502111905 50 194 4.0 9.0 0.00 0.00 0.00 83 1011.8
20260502111805 50 192 3.0 9.0 0.00 0.00 0.00 84 1011.8
20260502111704 50 187 3.0 8.0 0.00 0.00 0.00 83 1011.7
20260502111617 50 183 4.0 8.0 0.00 0.00 0.00 83 1012.0
20260502111605 50 187 3.0 8.0 0.00 0.00 0.00 83 1011.7
20260502111504 50 186 3.0 6.0 0.00 0.00 0.00 83 1011.7
20260502111404 50 184 3.0 6.0 0.00 0.00 0.00 83 1011.7
20260502111305 50 184 3.0 9.0 0.00 0.00 0.00 83 1011.7
20260502111204 50 182 3.0 9.0 0.00 0.00 0.00 83 1011.6
20260502111104 50 179 4.0 9.0 0.00 0.00 0.00 83 1011.6
20260502111005 50 178 4.0 10.0 0.00 0.00 0.00 83 1011.5
20260502110904 50 176 4.0 10.0 0.00 0.00 0.00 83 1011.4
20260502110305 50 175 5.0 10.0 0.00 0.00 0.00 83 1011.7
20260502110204 50 176 5.0 10.0 0.00 0.00 0.00 83 1011.6
20260502110104 49 202 5.0 10.0 0.00 0.00 0.00 83 1011.9
20260502110004 50 175 5.0 10.0 0.00 0.00 0.00 83 1011.5
20260502105904 50 177 5.0 10.0 0.00 0.00 0.00 83 1011.4
20260502105805 50 177 5.0 10.0 0.00 0.00 0.00 83 1011.4
20260502105704 50 179 5.0 11.0 0.00 0.00 0.00 83 1011.4
20260502105605 50 181 5.0 11.0 0.00 0.00 0.00 83 1011.4
20260502105504 50 183 5.0 11.0 0.00 0.00 0.00 83 1011.5
20260502105404 50 183 5.0 11.0 0.00 0.00 0.00 83 1011.5
20260502105306 50 184 5.0 11.0 0.00 0.00 0.00 83 1011.5
20260502105204 50 183 5.0 12.0 0.00 0.00 0.00 83 1011.5
20260502105104 50 183 5.0 12.0 0.00 0.00 0.00 83 1011.5
20260502105004 50 182 5.0 12.0 0.00 0.00 0.00 83 1011.5
20260502104904 50 181 5.0 12.0 0.00 0.00 0.00 83 1011.5
20260502104805 50 179 5.0 12.0 0.00 0.00 0.00 83 1011.4
20260502104704 50 178 6.0 12.0 0.00 0.00 0.00 83 1011.4
20260502104614 49 184 5.0 12.0 0.00 0.00 0.00 83 1011.6
20260502104605 50 176 6.0 12.0 0.00 0.00 0.00 83 1011.4
20260502104504 50 174 6.0 12.0 0.00 0.00 0.00 83 1011.4
20260502104404 50 173 6.0 12.0 0.00 0.00 0.00 83 1011.3
20260502104305 50 174 6.0 12.0 0.00 0.00 0.00 83 1011.3
20260502103705 50 174 6.0 12.0 0.00 0.00 0.00 83 1011.2
20260502103604 50 174 5.0 12.0 0.00 0.00 0.00 83 1011.2
20260502103505 50 175 5.0 12.0 0.00 0.00 0.00 83 1011.2
20260502103404 50 175 6.0 12.0 0.00 0.00 0.00 83 1011.3
20260502103304 50 172 6.0 12.0 0.00 0.00 0.00 83 1011.3
20260502103204 50 171 6.0 12.0 0.00 0.00 0.00 83 1011.3
20260502103104 50 168 6.0 12.0 0.00 0.00 0.00 83 1011.2
20260502103004 50 167 5.0 12.0 0.00 0.00 0.00 83 1011.2
20260502102904 50 165 6.0 11.0 0.00 0.00 0.00 83 1011.3
20260502102804 50 165 6.0 11.0 0.00 0.00 0.00 83 1011.3
20260502102705 50 164 6.0 11.0 0.00 0.00 0.00 83 1011.2
20260502102605 50 163 6.0 11.0 0.00 0.00 0.00 83 1011.2
20260502102505 50 162 6.0 11.0 0.00 0.00 0.00 83 1011.3
20260502102404 50 162 6.0 11.0 0.00 0.00 0.00 83 1011.2
20260502102306 50 162 6.0 11.0 0.00 0.00 0.00 83 1011.2
20260502102205 50 163 7.0 11.0 0.00 0.00 0.00 83 1011.2
20260502102104 50 164 7.0 11.0 0.00 0.00 0.00 83 1011.2
20260502101804 50 164 7.0 11.0 0.00 0.00 0.00 82 1011.2
20260502101605 50 163 7.0 11.0 0.00 0.00 0.00 82 1011.2
20260502101504 50 163 7.0 11.0 0.00 0.00 0.00 83 1011.2
20260502101404 50 163 7.0 11.0 0.00 0.00 0.00 83 1011.2
20260502101305 50 164 7.0 11.0 0.00 0.00 0.00 83 1011.1
20260502101204 50 163 7.0 11.0 0.00 0.00 0.00 83 1011.1
20260502101104 50 163 6.0 11.0 0.00 0.00 0.00 83 1011.0
20260502101005 50 163 7.0 11.0 0.00 0.00 0.00 83 1011.0
20260502100904 50 163 6.0 11.0 0.00 0.00 0.00 83 1011.0
20260502100805 50 163 6.0 11.0 0.00 0.00 0.00 83 1011.0
20260502100705 50 164 6.0 11.0 0.00 0.00 0.00 82 1011.0
20260502100605 50 164 6.0 11.0 0.00 0.00 0.00 82 1011.0
20260502100504 50 164 5.0 10.0 0.00 0.00 0.00 82 1011.0
20260502100405 50 164 6.0 10.0 0.00 0.00 0.00 82 1011.0
20260502100304 50 163 6.0 10.0 0.00 0.00 0.00 82 1011.0
20260502100204 50 163 6.0 10.0 0.00 0.00 0.00 82 1011.1
20260502100134 49 169 5.0 10.0 0.00 0.00 0.00 82 1011.3
20260502100105 50 162 6.0 10.0 0.00 0.00 0.00 82 1011.1
20260502091504 50 172 5.0 11.0 0.00 0.00 0.00 81 1011.1
20260502091404 50 171 5.0 11.0 0.00 0.00 0.00 81 1011.2
20260502091305 50 169 5.0 11.0 0.00 0.00 0.00 81 1011.2
20260502091204 50 168 5.0 11.0 0.00 0.00 0.00 81 1011.2
20260502091105 50 167 5.0 11.0 0.00 0.00 0.00 81 1011.2
20260502091004 50 166 6.0 11.0 0.00 0.00 0.00 81 1011.2
20260502090405 50 174 7.0 13.0 0.00 0.00 0.00 81 1011.1
20260502090304 49 175 7.0 13.0 0.00 0.00 0.00 81 1011.2
20260502090204 49 176 7.0 13.0 0.00 0.00 0.00 81 1011.1
20260502090105 49 177 7.0 13.0 0.00 0.00 0.00 81 1011.0
20260502080105 49 192 3.0 10.0 0.00 0.00 0.00 80 1011.2
20260502071505 49 176 5.0 11.0 0.00 0.00 0.00 79 1011.0
20260502071404 49 176 5.0 11.0 0.00 0.00 0.00 79 1011.1
20260502071304 49 176 5.0 11.0 0.00 0.00 0.00 79 1011.1
20260502071205 49 177 5.0 11.0 0.00 0.00 0.00 79 1011.1
20260502071104 49 178 5.0 11.0 0.00 0.00 0.00 79 1011.1
20260502071004 49 175 5.0 11.0 0.00 0.00 0.00 79 1011.1
20260502070904 49 174 5.0 11.0 0.00 0.00 0.00 79 1011.1
20260502070804 49 173 5.0 11.0 0.00 0.00 0.00 79 1011.1
20260502070704 49 172 5.0 12.0 0.00 0.00 0.00 79 1011.1
20260502070605 49 173 5.0 12.0 0.00 0.00 0.00 79 1011.2
20260502070504 49 173 5.0 12.0 0.00 0.00 0.00 79 1011.2
20260502070405 49 174 4.0 12.0 0.00 0.00 0.00 79 1011.2
20260502070305 49 172 4.0 12.0 0.00 0.00 0.00 79 1011.2
20260502070205 49 173 5.0 12.0 0.00 0.00 0.00 79 1011.1
20260502070116 49 140 4.0 12.0 0.00 0.00 0.00 79 1011.3
20260502070104 49 176 5.0 12.0 0.00 0.00 0.00 79 1011.2
20260502070005 49 178 5.0 12.0 0.00 0.00 0.00 79 1011.1
20260502065905 49 179 5.0 12.0 0.00 0.00 0.00 79 1011.1
20260502065804 49 182 5.0 12.0 0.00 0.00 0.00 79 1011.3
20260502065704 49 183 5.0 11.0 0.00 0.00 0.00 79 1011.3
20260502065105 49 181 6.0 12.0 0.00 0.00 0.00 79 1011.4
20260502065004 49 181 6.0 13.0 0.00 0.00 0.00 79 1011.4
20260502064905 49 179 6.0 13.0 0.00 0.00 0.00 79 1011.4
20260502064804 49 178 6.0 13.0 0.00 0.00 0.00 79 1011.4
20260502064705 49 177 6.0 13.0 0.00 0.00 0.00 79 1011.4
20260502064617 49 177 7.0 13.0 0.00 0.00 0.00 79 1011.7
20260502064104 50 176 5.0 13.0 0.00 0.00 0.00 79 1011.4
20260502064004 50 178 5.0 11.0 0.00 0.00 0.00 79 1011.4
20260502063905 49 178 5.0 11.0 0.00 0.00 0.00 78 1011.3
20260502063804 49 179 5.0 11.0 0.00 0.00 0.00 78 1011.4
20260502063704 49 179 5.0 11.0 0.00 0.00 0.00 79 1011.4
20260502063604 50 181 5.0 11.0 0.00 0.00 0.00 78 1011.4
20260502063504 50 178 5.0 13.0 0.00 0.00 0.00 78 1011.5
20260502063404 49 178 5.0 13.0 0.00 0.00 0.00 78 1011.5
20260502063304 50 177 5.0 13.0 0.00 0.00 0.00 79 1011.5
20260502063204 50 174 5.0 13.0 0.00 0.00 0.00 78 1011.4
20260502063115 49 171 5.0 13.0 0.00 0.00 0.00 79 1011.7
20260502063104 50 174 5.0 13.0 0.00 0.00 0.00 79 1011.4
20260502063004 50 174 5.0 13.0 0.00 0.00 0.00 78 1011.5
20260502062905 50 174 5.0 13.0 0.00 0.00 0.00 79 1011.5
20260502062804 50 174 5.0 13.0 0.00 0.00 0.00 79 1011.4
20260502062704 50 173 5.0 14.0 0.00 0.00 0.00 79 1011.5
20260502062605 50 173 5.0 14.0 0.00 0.00 0.00 79 1011.4
20260502062505 50 173 5.0 14.0 0.00 0.00 0.00 78 1011.5
20260502062404 50 174 6.0 14.0 0.00 0.00 0.00 78 1011.5
20260502062306 50 173 6.0 14.0 0.00 0.00 0.00 78 1011.5
20260502062205 50 173 6.0 14.0 0.00 0.00 0.00 78 1011.5
20260502061615 49 167 5.0 12.0 0.00 0.00 0.00 78 1011.7
20260502061604 50 167 6.0 12.0 0.00 0.00 0.00 78 1011.4
20260502061505 50 169 6.0 12.0 0.00 0.00 0.00 78 1011.5
20260502061404 50 170 6.0 12.0 0.00 0.00 0.00 78 1011.4
20260502061304 50 171 6.0 12.0 0.00 0.00 0.00 78 1011.4
20260502061204 50 172 6.0 12.0 0.00 0.00 0.00 78 1011.4
20260502060604 50 175 6.0 11.0 0.00 0.00 0.00 78 1011.5
20260502060504 50 175 6.0 11.0 0.00 0.00 0.00 78 1011.5
20260502060404 50 175 6.0 11.0 0.00 0.00 0.00 78 1011.5
20260502060304 49 174 5.0 11.0 0.00 0.00 0.00 78 1011.5
20260502060204 49 174 5.0 11.0 0.00 0.00 0.00 78 1011.5
20260502060115 49 162 6.0 12.0 0.00 0.00 0.00 78 1011.7
20260502060104 50 174 6.0 13.0 0.00 0.00 0.00 78 1011.4
20260502060004 50 175 5.0 13.0 0.00 0.00 0.00 78 1011.3
20260502055904 49 176 5.0 13.0 0.00 0.00 0.00 78 1011.3
20260502055805 49 174 5.0 13.0 0.00 0.00 0.00 78 1011.4
20260502055704 50 174 5.0 13.0 0.00 0.00 0.00 78 1011.4
20260502055105 49 175 6.0 13.0 0.00 0.00 0.00 77 1011.5
20260502055004 49 174 6.0 13.0 0.00 0.00 0.00 77 1011.5
20260502054904 49 173 6.0 13.0 0.00 0.00 0.00 77 1011.5
20260502054805 49 174 6.0 13.0 0.00 0.00 0.00 77 1011.5
20260502054704 49 175 6.0 13.0 0.00 0.00 0.00 77 1011.5
20260502054604 49 175 6.0 13.0 0.00 0.00 0.00 77 1011.5
20260502054504 49 172 6.0 12.0 0.00 0.00 0.00 77 1011.5
20260502054404 49 173 6.0 12.0 0.00 0.00 0.00 77 1011.5
20260502054305 49 173 5.0 12.0 0.00 0.00 0.00 77 1011.5
20260502054204 49 173 5.0 12.0 0.00 0.00 0.00 77 1011.5
20260502053504 49 172 5.0 10.0 0.00 0.00 0.00 77 1011.6
20260502053405 49 173 6.0 11.0 0.00 0.00 0.00 77 1011.6
20260502053304 49 172 6.0 11.0 0.00 0.00 0.00 77 1011.6
20260502053204 50 172 6.0 11.0 0.00 0.00 0.00 77 1011.6
20260502053116 49 178 4.0 11.0 0.00 0.00 0.00 77 1011.8
20260502053105 50 173 6.0 11.0 0.00 0.00 0.00 77 1011.6
20260502052005 50 174 6.0 12.0 0.00 0.00 0.00 76 1011.5
20260502051904 50 174 6.0 12.0 0.00 0.00 0.00 76 1011.5
20260502051804 50 175 6.0 12.0 0.00 0.00 0.00 76 1011.5
20260502051704 50 177 6.0 13.0 0.00 0.00 0.00 76 1011.5
20260502051609 49 179 5.0 13.0 0.00 0.00 0.00 76 1011.7
20260502051604 50 177 6.0 13.0 0.00 0.00 0.00 76 1011.5
20260502051504 50 178 6.0 13.0 0.00 0.00 0.00 76 1011.5
20260502051405 50 177 6.0 15.0 0.00 0.00 0.00 76 1011.5
20260502051304 50 176 6.0 15.0 0.00 0.00 0.00 76 1011.5
20260502051205 50 176 5.0 15.0 0.00 0.00 0.00 76 1011.5
20260502051105 50 174 5.0 15.0 0.00 0.00 0.00 76 1011.6
20260502051004 50 176 5.0 15.0 0.00 0.00 0.00 76 1011.6
20260502050904 50 177 5.0 15.0 0.00 0.00 0.00 76 1011.7
20260502050804 50 177 5.0 15.0 0.00 0.00 0.00 76 1011.7
20260502050704 50 177 6.0 15.0 0.00 0.00 0.00 76 1011.7
20260502050604 50 179 6.0 15.0 0.00 0.00 0.00 76 1011.7
20260502050505 49 177 6.0 15.0 0.00 0.00 0.00 76 1011.8
20260502050404 49 177 5.0 12.0 0.00 0.00 0.00 77 1011.8
20260502050304 50 177 5.0 12.0 0.00 0.00 0.00 77 1011.8
20260502050204 50 177 5.0 12.0 0.00 0.00 0.00 77 1011.8
20260502050112 49 133 4.0 12.0 0.00 0.00 0.00 77 1012.0
20260502050104 50 178 5.0 12.0 0.00 0.00 0.00 77 1011.8
20260502050005 49 178 5.0 12.0 0.00 0.00 0.00 77 1011.8
20260502045904 49 175 5.0 12.0 0.00 0.00 0.00 77 1011.8
20260502045804 49 174 5.0 12.0 0.00 0.00 0.00 77 1011.8
20260502045704 49 173 5.0 11.0 0.00 0.00 0.00 77 1011.8
20260502045604 49 171 5.0 11.0 0.00 0.00 0.00 77 1011.8
20260502045504 49 172 5.0 11.0 0.00 0.00 0.00 77 1011.7
20260502045405 49 175 5.0 11.0 0.00 0.00 0.00 77 1011.8
20260502045306 49 175 6.0 11.0 0.00 0.00 0.00 77 1011.8
20260502045204 49 175 6.0 12.0 0.00 0.00 0.00 77 1011.8
20260502045105 49 174 6.0 12.0 0.00 0.00 0.00 77 1011.8
20260502045004 49 173 6.0 12.0 0.00 0.00 0.00 77 1011.7
20260502044904 49 174 6.0 12.0 0.00 0.00 0.00 77 1011.8
20260502044804 49 177 6.0 12.0 0.00 0.00 0.00 76 1011.8
20260502044705 49 175 6.0 12.0 0.00 0.00 0.00 76 1011.9
20260502044607 49 164 5.0 12.0 0.00 0.00 0.00 76 1012.1
20260502044604 49 174 6.0 12.0 0.00 0.00 0.00 76 1011.9
20260502044504 49 174 6.0 12.0 0.00 0.00 0.00 76 1011.9
20260502044405 49 172 6.0 12.0 0.00 0.00 0.00 76 1011.9
20260502044304 49 172 6.0 12.0 0.00 0.00 0.00 76 1011.9
20260502044204 49 172 6.0 12.0 0.00 0.00 0.00 76 1011.9
20260502044104 49 172 6.0 12.0 0.00 0.00 0.00 76 1011.9
20260502044004 49 173 6.0 12.0 0.00 0.00 0.00 76 1011.8
20260502043904 49 173 5.0 12.0 0.00 0.00 0.00 76 1011.8
20260502043804 49 172 6.0 12.0 0.00 0.00 0.00 76 1011.8
20260502043704 49 173 6.0 12.0 0.00 0.00 0.00 76 1011.8
20260502043605 49 175 6.0 14.0 0.00 0.00 0.00 76 1011.8
20260502043504 49 175 6.0 14.0 0.00 0.00 0.00 76 1011.8
20260502043404 49 176 6.0 14.0 0.00 0.00 0.00 76 1011.9
20260502043305 49 178 6.0 14.0 0.00 0.00 0.00 76 1011.9
20260502043204 49 178 6.0 14.0 0.00 0.00 0.00 76 1011.9
20260502043113 49 177 4.0 14.0 0.00 0.00 0.00 76 1012.2
20260502043104 49 178 6.0 14.0 0.00 0.00 0.00 76 1011.9
20260502043004 49 177 6.0 14.0 0.00 0.00 0.00 76 1011.9
20260502042904 49 176 6.0 14.0 0.00 0.00 0.00 76 1011.9
20260502042804 49 176 6.0 14.0 0.00 0.00 0.00 76 1011.9
20260502042705 49 175 6.0 14.0 0.00 0.00 0.00 76 1012.0
20260502042604 49 174 6.0 13.0 0.00 0.00 0.00 76 1012.0
20260502042504 50 175 6.0 13.0 0.00 0.00 0.00 76 1012.0
20260502042404 49 176 6.0 13.0 0.00 0.00 0.00 76 1011.9
20260502042306 49 175 6.0 13.0 0.00 0.00 0.00 76 1011.9
20260502041704 49 182 6.0 13.0 0.00 0.00 0.00 76 1011.9
20260502041613 49 175 5.0 12.0 0.00 0.00 0.00 76 1012.1
20260502041604 50 182 5.0 11.0 0.00 0.00 0.00 76 1011.9
20260502041505 50 181 5.0 11.0 0.00 0.00 0.00 76 1011.9
20260502041404 50 179 6.0 13.0 0.00 0.00 0.00 76 1011.9
20260502041304 50 178 6.0 13.0 0.00 0.00 0.00 76 1011.9
20260502040205 50 174 6.0 13.0 0.00 0.00 0.00 75 1011.7
20260502040112 49 170 5.0 13.0 0.00 0.00 0.00 75 1012.0
20260502040104 50 174 6.0 13.0 0.00 0.00 0.00 75 1011.7
20260502040006 50 174 6.0 13.0 0.00 0.00 0.00 75 1011.8
20260502035904 50 175 6.0 13.0 0.00 0.00 0.00 75 1011.7
20260502035805 50 176 7.0 13.0 0.00 0.00 0.00 75 1011.8
20260502035704 50 175 7.0 13.0 0.00 0.00 0.00 75 1011.8
20260502035604 50 176 6.0 13.0 0.00 0.00 0.00 75 1011.7
20260502035505 50 176 6.0 13.0 0.00 0.00 0.00 75 1011.8
20260502035404 50 177 7.0 13.0 0.00 0.00 0.00 75 1011.8
20260502035306 50 176 7.0 13.0 0.00 0.00 0.00 75 1011.8
20260502035204 50 177 7.0 14.0 0.00 0.00 0.00 75 1011.8